Weather History for North Adams, MA

Change the Weather History Date:

Wednesday, February 20, 2013

  Actual Average Record
Temperature  
Mean Temperature 28 °F -  
Max Temperature 33 °F 33 °F 51 °F (2001)
Min Temperature 23 °F 16 °F 7 °F (2004)
Degree Days  
Heating Degree Days 37    
Moisture  
Dew Point 15 °F    
Average Humidity 61    
Maximum Humidity 86    
Minimum Humidity 41    
Precipitation  
Precipitation 0.00 in - - ()
Sea Level Pressure  
Sea Level Pressure 29.71 in    
Wind  
Wind Speed 13 mph (West)    
Max Wind Speed 24 mph    
Max Gust Speed 34 mph    
Visibility 8 miles    
Events Snow    
Averages and records for this station are not official NWS values.
T = Trace of Precipitation, MM = Missing Value Source: NWS Daily Summary

Daily Weather History Graph

Daily Weather History Graph

Search for Another Location

Airport:

Trip Planner

Search our weather history database for the weather conditions in past years. The results will help you decide how hot, cold, wet, or windy it might be!

Date:

Astronomy

Feb. 20, 2013 Rise Set
Actual Time 6:42 AM EST 5:31 PM EST
Civil Twilight 6:13 AM EST 5:59 PM EST
Nautical Twilight 5:40 AM EST 6:32 PM EST
Astronomical Twilight 5:07 AM EST 7:05 PM EST
Moon 12:46 PM EST (2/20) 3:04 AM EST (2/20)
Length of Visible Light 11h 46m
Length of Day
10h 49m
Waxing Gibbous, 76% of the Moon is Illuminated
Feb 20
Waxing Gibbous
Feb 25
Full
Mar 4
Last Quarter
Mar 11
New
Mar 19
First Quarter

Hourly Weather History & Observations

Time (EST) Temp. Windchill Dew Point Humidity Pressure Visibility Wind Dir Wind Speed Gust Speed Precip Events Conditions
12:03 AM 33.8 °F 27.0 °F 28.4 °F 81% 29.62 in 2.5 mi WNW 8.1 mph 20.7 mph 0.00 in Snow Light Snow
12:06 AM 32.0 °F 22.5 °F 26.6 °F 80% 29.62 in 1.8 mi West 12.7 mph 18.4 mph 0.00 in Snow Light Snow
12:15 AM 30.2 °F 23.4 °F 26.6 °F 86% 29.63 in 1.2 mi Variable 6.9 mph 18.4 mph 0.00 in Snow Light Snow
12:19 AM 30.2 °F 23.4 °F 24.8 °F 80% 29.63 in 2.0 mi Variable 6.9 mph 18.4 mph 0.00 in Snow Light Snow
12:28 AM 30.2 °F 25.4 °F 24.8 °F 80% 29.63 in 8.0 mi Variable 4.6 mph - 0.00 in Snow Light Snow
12:52 AM 30.9 °F 27.5 °F 21.9 °F 69% 29.66 in 10.0 mi Variable 3.5 mph - 0.00 in   Overcast
1:52 AM 30.9 °F 22.2 °F 21.9 °F 69% 29.66 in 10.0 mi West 10.4 mph - N/A   Overcast
2:11 AM 30.2 °F 20.8 °F 21.2 °F 69% 29.64 in 9.0 mi West 11.5 mph - N/A   Overcast
2:30 AM 30.2 °F 20.8 °F 21.2 °F 69% 29.64 in 9.0 mi West 11.5 mph - N/A   Overcast
2:52 AM 30.0 °F 22.4 °F 19.0 °F 64% 29.67 in 5.0 mi WNW 8.1 mph 23.0 mph 0.00 in Snow Light Snow
3:52 AM 28.0 °F 16.5 °F 17.1 °F 63% 29.68 in 8.0 mi West 15.0 mph 27.6 mph 0.00 in Snow Light Snow
4:17 AM 28.4 °F 17.5 °F 15.8 °F 59% 29.67 in 10.0 mi WNW 13.8 mph 21.9 mph 0.00 in   Overcast
4:52 AM 27.0 °F 14.7 °F 15.1 °F 61% 29.68 in 10.0 mi West 16.1 mph 24.2 mph 0.00 in   Overcast
5:09 AM 26.6 °F 14.7 °F 15.8 °F 64% 29.67 in 7.0 mi West 15.0 mph 25.3 mph 0.00 in Snow Light Snow
5:27 AM 26.6 °F 13.4 °F 15.8 °F 64% 29.67 in 2.5 mi West 18.4 mph 25.3 mph 0.00 in Snow Light Snow
5:34 AM 24.8 °F 11.5 °F 17.6 °F 74% 29.67 in 1.2 mi West 17.3 mph 25.3 mph 0.00 in Snow Light Snow
5:52 AM 25.0 °F 13.1 °F 17.1 °F 72% 29.69 in 1.5 mi West 13.8 mph 21.9 mph 0.00 in Snow Light Snow
6:05 AM 24.8 °F 10.3 °F 15.8 °F 69% 29.66 in 3.0 mi West 20.7 mph 34.5 mph 0.00 in Snow Light Snow
6:32 AM 26.6 °F 12.7 °F 14.0 °F 59% 29.66 in 10.0 mi West 20.7 mph 31.1 mph 0.00 in   Overcast
6:52 AM 26.1 °F 11.6 °F 14.0 °F 60% 29.70 in 10.0 mi West 21.9 mph 33.4 mph 0.00 in   Overcast
7:52 AM 25.0 °F 9.5 °F 12.9 °F 60% 29.71 in 10.0 mi West 24.2 mph 31.1 mph N/A   Overcast
8:52 AM 25.0 °F 10.9 °F 12.9 °F 60% 29.73 in 10.0 mi West 19.6 mph 27.6 mph N/A   Mostly Cloudy
9:52 AM 25.0 °F 11.7 °F 12.0 °F 58% 29.73 in 10.0 mi West 17.3 mph 24.2 mph N/A   Overcast
10:52 AM 28.9 °F 18.6 °F 10.9 °F 47% 29.72 in 10.0 mi West 12.7 mph 27.6 mph N/A   Mostly Cloudy
11:52 AM 28.0 °F 16.1 °F 7.0 °F 41% 29.72 in 10.0 mi West 16.1 mph 26.5 mph N/A   Overcast
12:52 PM 27.0 °F 14.3 °F 7.0 °F 43% 29.72 in 10.0 mi West 17.3 mph 26.5 mph N/A   Overcast
1:52 PM 27.0 °F 12.5 °F 7.0 °F 43% 29.72 in 10.0 mi West 23.0 mph 34.5 mph N/A   Overcast
2:52 PM 26.1 °F 12.0 °F 7.0 °F 44% 29.74 in 10.0 mi West 20.7 mph 27.6 mph N/A   Overcast
3:52 PM 26.1 °F 14.0 °F 8.1 °F 47% 29.76 in 10.0 mi West 15.0 mph 25.3 mph N/A   Overcast
4:52 PM 25.0 °F 10.9 °F 7.0 °F 46% 29.77 in 10.0 mi West 19.6 mph 32.2 mph N/A   Overcast
6:52 PM 24.1 °F 10.6 °F 8.1 °F 51% 29.82 in 10.0 mi West 17.3 mph 26.5 mph N/A   Overcast
7:52 PM 23.0 °F 10.1 °F 9.0 °F 55% 29.83 in 10.0 mi West 15.0 mph 27.6 mph N/A   Overcast
8:52 PM 23.0 °F 9.2 °F 10.0 °F 58% 29.83 in 10.0 mi West 17.3 mph 20.7 mph N/A   Overcast
9:33 PM 23.0 °F 9.6 °F 10.4 °F 59% 29.81 in 10.0 mi WSW 16.1 mph 21.9 mph N/A   Overcast
10:52 PM 24.1 °F 13.7 °F 10.9 °F 57% 29.86 in 10.0 mi West 10.4 mph 23.0 mph N/A   Overcast
11:12 PM 24.8 °F 16.9 °F 10.4 °F 54% 29.83 in 10.0 mi Variable 6.9 mph 20.7 mph N/A   Overcast
11:52 PM 24.1 °F 10.6 °F 10.0 °F 55% 29.86 in 10.0 mi West 17.3 mph 27.6 mph N/A   Overcast